FW2530 Weather Reports


Display with metric or nautical units.
time (UTC)temp
F
wind
direction
speed
MPH
gust
MPH
rain 1hr
in
rain 24hr
in
rain mn
in
humidity
%
barometer
mb
20260902044014 74 0 0.0 0.0 0.00 0.00 0.00 75 1014.0
20260902043514 74 0 0.0 0.0 0.00 0.00 0.00 75 1014.2
20260902043014 74 0 0.0 0.0 0.00 0.00 0.00 75 1014.2
20260902042514 75 0 0.0 0.0 0.00 0.00 0.00 75 1014.2
20260902042035 75 0 0.0 0.0 0.00 0.00 0.00 75 1014.2
20260902041514 75 0 0.0 0.0 0.00 0.00 0.00 75 1014.1
20260902041014 75 0 0.0 0.0 0.00 0.00 0.00 75 1014.0
20260902040514 75 0 0.0 0.0 0.00 0.00 0.00 75 1013.9
20260902040014 75 0 0.0 0.0 0.00 0.00 0.00 75 1014.0
20260902035514 75 0 0.0 0.0 0.00 0.00 0.00 75 1013.9
20260902035014 75 0 0.0 0.0 0.00 0.00 0.00 75 1014.0
20260902034535 75 0 0.0 0.0 0.00 0.00 0.00 75 1014.0
20260902034035 75 0 0.0 0.0 0.00 0.00 0.00 77 1014.1
20260902033535 76 0 0.0 0.0 0.00 0.00 0.00 77 1014.0
20260902033014 76 0 0.0 0.0 0.00 0.00 0.00 77 1014.0
20260902032514 76 0 0.0 0.0 0.00 0.00 0.00 77 1013.9
20260902032014 76 0 0.0 0.0 0.00 0.00 0.00 77 1014.0
20260902031535 76 0 0.0 0.0 0.00 0.00 0.00 77 1013.9
20260902031014 76 360 0.0 0.0 0.00 0.00 0.00 77 1013.9
20260902030514 76 360 0.0 1.0 0.00 0.00 0.00 78 1013.9
20260902030014 76 360 0.0 0.0 0.00 0.00 0.00 78 1013.9
20260902025514 76 360 0.0 1.0 0.00 0.00 0.00 78 1013.9
20260902025014 76 360 0.0 0.0 0.00 0.00 0.00 78 1014.0
20260902024535 76 360 0.0 1.0 0.00 0.00 0.00 78 1014.1
20260902024014 76 0 0.0 0.0 0.00 0.00 0.00 78 1014.0
20260902023514 77 0 0.0 0.0 0.00 0.00 0.00 78 1014.0
20260902023014 77 360 0.0 0.0 0.00 0.00 0.00 78 1014.1
20260902022514 77 360 0.0 1.0 0.00 0.00 0.00 79 1014.0
20260902022014 77 360 0.0 1.0 0.00 0.00 0.00 79 1013.9
20260902021514 77 360 0.0 3.0 0.00 0.00 0.00 79 1013.8
20260902021035 77 0 0.0 0.0 0.00 0.00 0.00 80 1013.9
20260902020514 77 0 0.0 0.0 0.00 0.00 0.00 80 1014.0
20260902020014 77 0 0.0 0.0 0.00 0.00 0.00 80 1013.8
20260902015535 77 0 0.0 0.0 0.00 0.00 0.00 80 1013.8
20260902015014 77 0 0.0 0.0 0.00 0.00 0.00 80 1013.8
20260902014514 77 0 0.0 0.0 0.00 0.00 0.00 80 1013.7
20260902014014 78 0 0.0 0.0 0.00 0.00 0.00 80 1013.7
20260902013535 78 0 0.0 0.0 0.00 0.00 0.00 80 1013.7
20260902013014 78 0 0.0 0.0 0.00 0.00 0.00 80 1013.7
20260902012535 78 0 0.0 0.0 0.00 0.00 0.00 80 1013.7
20260902012014 78 0 0.0 0.0 0.00 0.00 0.00 81 1013.6
20260902011514 78 0 0.0 0.0 0.00 0.00 0.00 80 1013.6
20260902011014 78 0 0.0 0.0 0.00 0.00 0.00 81 1013.5
20260902010514 79 0 0.0 0.0 0.00 0.00 0.00 81 1013.4
20260902010035 79 0 0.0 0.0 0.00 0.00 0.00 81 1013.4
20260902005514 79 0 0.0 0.0 0.00 0.00 0.00 81 1013.4
20260902005014 79 0 0.0 0.0 0.00 0.00 0.00 81 1013.3
20260902004514 79 0 0.0 0.0 0.00 0.00 0.00 81 1013.2
20260902004035 79 0 0.0 0.0 0.00 0.00 0.00 81 1013.2
20260902003535 80 0 0.0 0.0 0.00 0.00 0.00 81 1013.3
20260902003014 80 0 0.0 0.0 0.00 0.00 0.00 81 1013.2
20260902002514 80 0 0.0 0.0 0.00 0.00 0.00 81 1013.2
20260902002014 80 0 0.0 0.0 0.00 0.00 0.00 81 1013.2
20260902001514 80 0 0.0 0.0 0.00 0.00 0.00 81 1013.2
20260902001014 80 360 0.0 0.0 0.00 0.00 0.00 81 1013.2
20260902000513 81 4 1.0 1.0 0.00 0.00 0.00 81 1013.3
20260902000014 81 4 1.0 3.0 0.00 0.00 0.00 80 1013.5
20260901235514 81 20 1.0 3.0 0.00 0.00 0.00 80 1013.5
20260901235014 81 100 1.0 4.0 0.00 0.00 0.00 80 1013.5
20260901234514 81 142 1.0 5.0 0.00 0.00 0.00 80 1013.5
20260901234013 81 140 2.0 5.0 0.00 0.00 0.00 80 1013.5
20260901233514 81 138 2.0 5.0 0.00 0.00 0.00 80 1013.5
20260901233035 82 129 3.0 4.0 0.00 0.00 0.00 80 1013.5
20260901232513 82 21 3.0 5.0 0.00 0.00 0.00 80 1013.5
20260901232014 82 360 3.0 4.0 0.00 0.00 0.00 80 1013.6
20260901231514 83 360 2.0 4.0 0.00 0.00 0.00 80 1013.6
20260901231014 83 123 3.0 5.0 0.00 0.00 0.00 80 1013.7
20260901230514 83 145 4.0 9.0 0.00 0.00 0.00 79 1013.6
20260901230014 83 156 4.0 9.0 0.00 0.00 0.00 79 1013.6
20260901225514 83 155 3.0 7.0 0.00 0.00 0.00 79 1013.6
20260901225014 83 153 2.0 8.0 0.00 0.00 0.00 79 1013.5
20260901224535 83 145 1.0 7.0 0.00 0.00 0.00 79 1013.5
20260901224014 84 161 0.0 0.0 0.00 0.00 0.00 79 1013.5
20260901223513 84 161 2.0 5.0 0.00 0.00 0.00 78 1013.5
20260901223014 84 161 5.0 8.0 0.00 0.00 0.00 78 1013.5
20260901222513 84 161 4.0 8.0 0.00 0.00 0.00 78 1013.4
20260901222014 85 154 4.0 8.0 0.00 0.00 0.00 77 1013.5
20260901221514 85 153 5.0 9.0 0.00 0.00 0.00 75 1013.5
20260901221034 86 156 5.0 8.0 0.00 0.00 0.00 74 1013.4
20260901220513 87 158 4.0 8.0 0.00 0.00 0.00 74 1013.5
20260901220013 88 173 4.0 9.0 0.00 0.00 0.00 72 1013.5
20260901215514 89 185 2.0 8.0 0.00 0.00 0.00 70 1013.6
20260901215014 90 181 1.0 7.0 0.00 0.00 0.00 66 1013.6
20260901214535 90 173 0.0 0.0 0.00 0.00 0.00 63 1013.5
20260901214013 90 275 1.0 7.0 0.00 0.00 0.00 63 1013.5
20260901213513 90 290 1.0 9.0 0.00 0.00 0.00 63 1013.4
20260901213013 90 288 0.0 1.0 0.00 0.00 0.00 64 1013.4
20260901212513 90 288 0.0 5.0 0.00 0.00 0.00 62 1013.5
20260901212013 90 0 0.0 0.0 0.00 0.00 0.00 62 1013.4
20260901211513 91 0 0.0 0.0 0.00 0.00 0.00 62 1013.5
20260901211013 91 286 0.0 0.0 0.00 0.00 0.00 61 1013.4
20260901210513 91 285 0.0 5.0 0.00 0.00 0.00 60 1013.4
20260901210013 91 254 0.0 3.0 0.00 0.00 0.00 60 1013.4
20260901205513 91 0 0.0 0.0 0.00 0.00 0.00 57 1013.4
20260901205014 92 0 0.0 0.0 0.00 0.00 0.00 56 1013.3
20260901204513 92 0 0.0 0.0 0.00 0.00 0.00 53 1013.4
20260901204013 91 0 0.0 0.0 0.00 0.00 0.00 57 1013.3
20260901203513 91 304 0.0 0.0 0.00 0.00 0.00 56 1013.3
20260901203013 91 304 0.0 1.0 0.00 0.00 0.00 58 1013.4
20260901202513 91 0 0.0 0.0 0.00 0.00 0.00 60 1013.5
20260901202013 91 302 0.0 0.0 0.00 0.00 0.00 58 1013.4
20260901201513 91 302 0.0 4.0 0.00 0.00 0.00 57 1013.5
20260901201034 91 0 0.0 0.0 0.00 0.00 0.00 56 1013.4
20260901200513 91 0 0.0 0.0 0.00 0.00 0.00 55 1013.5
20260901200013 91 298 1.0 0.0 0.00 0.00 0.00 56 1013.6
20260901195534 91 299 1.0 5.0 0.00 0.00 0.00 57 1013.4
20260901195013 91 304 0.0 5.0 0.00 0.00 0.00 57 1013.4
20260901194513 91 306 0.0 0.0 0.00 0.00 0.00 59 1013.5
20260901194013 91 305 1.0 4.0 0.00 0.01 0.00 59 1013.5
20260901193513 91 304 1.0 4.0 0.00 0.01 0.00 56 1013.6
20260901193013 91 314 1.0 4.0 0.00 0.01 0.00 57 1013.5
20260901192513 91 326 1.0 5.0 0.00 0.01 0.00 56 1013.6
20260901192034 91 322 1.0 4.0 0.00 0.01 0.00 58 1013.6
20260901191513 91 310 1.0 7.0 0.00 0.01 0.00 59 1013.6
20260901191013 91 304 1.0 4.0 0.00 0.01 0.00 57 1013.7
20260901190513 91 289 1.0 4.0 0.00 0.01 0.00 58 1013.7
20260901190013 91 280 1.0 9.0 0.00 0.01 0.00 58 1013.7
20260901185513 90 284 1.0 9.0 0.00 0.01 0.00 57 1013.8
20260901185013 90 308 2.0 5.0 0.00 0.01 0.00 59 1013.8
20260901184513 90 320 2.0 7.0 0.00 0.01 0.00 57 1013.8
20260901184034 90 329 2.0 8.0 0.00 0.01 0.00 57 1014.0
20260901183513 90 328 1.0 7.0 0.00 0.01 0.00 57 1014.0
20260901183013 90 317 2.0 4.0 0.00 0.01 0.00 58 1014.0
20260901182513 90 306 3.0 9.0 0.00 0.01 0.00 57 1014.0
20260901182013 90 288 1.0 12.0 0.00 0.01 0.00 57 1014.0
20260901181513 90 303 1.0 8.0 0.00 0.01 0.00 58 1014.0
20260901181035 90 292 2.0 7.0 0.00 0.01 0.00 58 1014.1
20260901180534 90 279 2.0 9.0 0.00 0.01 0.00 59 1014.0
20260901180013 90 273 1.0 3.0 0.00 0.01 0.00 61 1014.1
20260901175513 89 258 2.0 8.0 0.00 0.01 0.00 60 1014.0
20260901175013 89 249 1.0 9.0 0.00 0.01 0.00 63 1014.0
20260901174513 88 288 2.0 4.0 0.00 0.01 0.00 62 1013.9
20260901174017 88 292 2.0 8.0 0.00 0.01 0.00 61 1014.0
20260901173513 88 300 2.0 7.0 0.00 0.01 0.00 61 1014.1
20260901173013 88 301 2.0 11.0 0.00 0.01 0.00 61 1014.1
20260901172513 88 262 2.0 4.0 0.00 0.01 0.00 62 1014.0
20260901172013 88 265 3.0 11.0 0.00 0.01 0.00 63 1014.1
20260901171513 87 281 2.0 12.0 0.00 0.01 0.00 63 1014.1
20260901171013 87 292 2.0 7.0 0.00 0.01 0.00 62 1014.1
20260901170513 87 290 2.0 5.0 0.00 0.01 0.00 62 1014.1
20260901170013 87 286 2.0 9.0 0.00 0.01 0.00 60 1014.2
20260901165513 88 293 2.0 8.0 0.00 0.01 0.00 61 1014.2
20260901165013 88 288 3.0 9.0 0.00 0.01 0.00 60 1014.4
20260901164513 88 288 3.0 12.0 0.00 0.01 0.00 60 1014.4
20260901164014 88 299 3.0 11.0 0.00 0.01 0.00 61 1014.3
20260901163513 88 298 3.0 8.0 0.00 0.02 0.00 61 1014.4
20260901163014 87 271 3.0 12.0 0.00 0.02 0.00 62 1014.5
20260901162513 87 263 3.0 9.0 0.00 0.02 0.00 61 1014.4
20260901162034 87 289 2.0 11.0 0.00 0.02 0.00 61 1014.5
20260901161513 87 282 2.0 7.0 0.00 0.02 0.00 61 1014.5
20260901161013 87 273 3.0 5.0 0.00 0.02 0.00 62 1014.5
20260901160513 86 287 3.0 11.0 0.00 0.02 0.00 61 1014.5
20260901160013 86 302 3.0 11.0 0.00 0.03 0.00 62 1014.4
20260901155513 86 302 3.0 9.0 0.00 0.06 0.00 62 1014.5
20260901155013 86 300 3.0 9.0 0.00 0.06 0.00 62 1014.4
20260901154513 85 306 3.0 7.0 0.00 0.06 0.00 62 1014.4
20260901154013 85 297 3.0 7.0 0.00 0.07 0.00 61 1014.5
20260901153513 85 286 2.0 11.0 0.00 0.09 0.00 61 1014.4
20260901153013 85 298 2.0 8.0 0.00 0.09 0.00 63 1014.6
20260901152513 85 301 3.0 9.0 0.00 0.09 0.00 62 1014.5
20260901152013 85 296 2.0 8.0 0.00 0.09 0.00 62 1014.5
20260901151534 84 293 1.0 4.0 0.00 0.09 0.00 63 1014.4
20260901151013 84 289 0.0 4.0 0.00 0.09 0.00 63 1014.5
20260901150513 84 305 1.0 4.0 0.00 0.09 0.00 63 1014.4
20260901150013 83 307 2.0 9.0 0.00 0.09 0.00 41 1014.4
20260901145513 83 303 2.0 8.0 0.00 0.09 0.00 63 1014.4
20260901145034 83 304 2.0 9.0 0.00 0.09 0.00 63 1014.4
20260901144513 82 318 2.0 7.0 0.00 0.09 0.00 64 1014.3
20260901144013 82 325 2.0 5.0 0.00 0.09 0.00 64 1014.3
20260901143513 82 324 2.0 5.0 0.00 0.09 0.00 64 1014.3
20260901143013 82 320 2.0 4.0 0.00 0.09 0.00 64 1014.3
20260901142534 82 317 2.0 7.0 0.00 0.09 0.00 66 1014.5
20260901142013 81 313 2.0 5.0 0.00 0.09 0.00 67 1014.2
20260901141513 81 312 2.0 5.0 0.00 0.09 0.00 68 1014.3
20260901141013 80 318 2.0 7.0 0.00 0.09 0.00 68 1014.4
20260901140513 80 325 1.0 5.0 0.00 0.09 0.00 70 1014.4
20260901140013 79 326 1.0 4.0 0.00 0.09 0.00 70 1014.3
20260901135513 79 324 1.0 4.0 0.00 0.09 0.00 71 1014.2
20260901135013 78 320 1.0 4.0 0.00 0.09 0.00 72 1014.1
20260901134513 78 319 1.0 4.0 0.00 0.09 0.00 72 1014.0
20260901134034 77 319 1.0 4.0 0.00 0.09 0.00 73 1014.1
20260901133513 77 324 1.0 3.0 0.00 0.09 0.00 73 1014.2
20260901133013 76 352 2.0 3.0 0.00 0.09 0.00 74 1014.3
20260901132513 76 360 2.0 7.0 0.00 0.09 0.00 74 1014.4
20260901132013 76 360 1.0 7.0 0.00 0.09 0.00 74 1014.4
20260901131513 76 359 0.0 3.0 0.00 0.09 0.00 74 1014.7
20260901131013 76 330 0.0 3.0 0.00 0.09 0.00 75 1014.6
20260901130513 76 320 0.0 4.0 0.00 0.09 0.00 75 1014.6
20260901130034 76 355 1.0 3.0 0.00 0.09 0.00 75 1014.6
20260901125513 76 360 1.0 7.0 0.00 0.09 0.00 77 1014.7
20260901125013 75 360 1.0 5.0 0.00 0.09 0.00 77 1014.8
20260901124514 75 360 1.0 7.0 0.00 0.09 0.00 77 1014.9
20260901124013 75 360 0.0 7.0 0.00 0.09 0.00 77 1014.7
20260901123513 75 0 0.0 0.0 0.00 0.09 0.00 78 1014.6
20260901123013 74 322 0.0 0.0 0.00 0.10 0.00 78 1014.7
20260901122534 74 318 1.0 3.0 0.00 0.10 0.00 78 1014.7
20260901122013 73 317 1.0 5.0 0.00 0.10 0.00 78 1014.6
20260901121513 73 343 0.0 4.0 0.00 0.11 0.00 78 1014.6
20260901121013 73 359 0.0 4.0 0.00 0.13 0.00 78 1014.6
20260901120513 72 0 0.0 0.0 0.00 0.16 0.00 78 1014.5
20260901120013 72 0 0.0 0.0 0.00 0.16 0.00 78 1014.3
20260901115513 72 0 0.0 0.0 0.00 0.16 0.00 78 1014.3
20260901115013 72 0 0.0 0.0 0.00 0.16 0.00 78 1014.2
20260901114534 72 0 0.0 0.0 0.00 0.16 0.00 78 1014.3
20260901114034 71 331 0.0 0.0 0.00 0.16 0.00 78 1014.3
20260901113513 71 331 0.0 1.0 0.00 0.16 0.00 78 1014.2
20260901113013 71 323 0.0 1.0 0.00 0.16 0.00 78 1014.2
20260901112534 71 318 0.0 1.0 0.00 0.16 0.00 78 1014.2
20260901112013 71 318 0.0 3.0 0.00 0.16 0.00 78 1014.2
20260901111513 71 319 0.0 0.0 0.00 0.16 0.00 78 1014.0
20260901111034 71 319 0.0 1.0 0.00 0.16 0.00 78 1014.1
20260901110513 71 319 0.0 4.0 0.00 0.16 0.00 78 1014.1
20260901110013 71 317 0.0 3.0 0.00 0.16 0.00 78 1014.0
20260901105513 71 0 0.0 1.0 0.00 0.16 0.00 78 1013.9
20260901105013 71 0 0.0 0.0 0.00 0.16 0.00 77 1013.8
20260901104513 71 317 0.0 0.0 0.00 0.16 0.00 77 1013.8
20260901104013 71 317 0.0 4.0 0.00 0.16 0.00 77 1013.8
20260901103513 71 318 0.0 4.0 0.00 0.16 0.00 77 1013.8
20260901103013 71 321 0.0 3.0 0.00 0.16 0.00 77 1013.7
20260901102513 71 324 0.0 5.0 0.00 0.16 0.00 77 1013.7
20260901102034 71 332 0.0 3.0 0.00 0.16 0.00 77 1013.6
20260901101513 71 334 1.0 4.0 0.00 0.16 0.00 77 1013.5
20260901101013 71 336 0.0 5.0 0.00 0.16 0.00 77 1013.6
20260901100513 71 347 0.0 3.0 0.00 0.16 0.00 77 1013.6
20260901100034 72 336 1.0 4.0 0.00 0.16 0.00 77 1013.6
20260901095534 72 319 1.0 5.0 0.00 0.16 0.00 77 1013.7
20260901095013 72 279 1.0 5.0 0.00 0.16 0.00 77 1013.4
20260901094513 72 283 2.0 8.0 0.00 0.16 0.00 77 1013.5
20260901094013 72 297 2.0 9.0 0.00 0.16 0.00 77 1013.5
20260901093513 72 310 2.0 4.0 0.00 0.16 0.00 77 1013.5
20260901093013 72 312 1.0 8.0 0.00 0.16 0.00 77 1013.4
20260901092513 72 312 1.0 5.0 0.00 0.16 0.00 77 1013.3
20260901092034 72 305 1.0 5.0 0.00 0.16 0.00 77 1013.4
20260901091512 71 296 1.0 5.0 0.00 0.16 0.00 77 1013.3
20260901091013 71 300 1.0 9.0 0.00 0.16 0.00 77 1013.2
20260901090513 71 310 1.0 5.0 0.00 0.16 0.00 77 1013.3
20260901090013 71 308 1.0 7.0 0.00 0.16 0.00 77 1013.3
20260901085513 71 297 1.0 4.0 0.00 0.16 0.00 77 1013.3
20260901085013 71 293 1.0 4.0 0.00 0.16 0.00 77 1013.3
20260901084513 71 291 1.0 7.0 0.00 0.16 0.00 77 1013.3
20260901084013 71 288 1.0 5.0 0.00 0.16 0.00 77 1013.2
20260901083534 71 290 1.0 8.0 0.00 0.16 0.00 77 1013.1
20260901083013 71 304 1.0 8.0 0.00 0.16 0.00 77 1013.1
20260901082513 71 317 1.0 3.0 0.00 0.16 0.00 77 1013.0
20260901082013 71 312 1.0 5.0 0.00 0.16 0.00 77 1013.1
20260901081513 71 298 1.0 3.0 0.00 0.16 0.00 77 1013.0
20260901081013 71 296 1.0 7.0 0.00 0.16 0.00 77 1013.2
20260901080513 71 298 2.0 7.0 0.00 0.16 0.00 78 1013.1
20260901080013 71 299 2.0 5.0 0.00 0.16 0.00 78 1013.1
20260901075513 71 296 2.0 7.0 0.00 0.16 0.00 78 1013.1
20260901075013 71 286 1.0 8.0 0.00 0.16 0.00 78 1013.1
20260901074512 71 277 0.0 4.0 0.00 0.16 0.00 78 1013.0
20260901074012 70 277 1.0 0.0 0.00 0.16 0.00 78 1013.0
20260901073512 70 277 1.0 8.0 0.00 0.16 0.00 78 1012.9
20260901073034 70 278 0.0 0.0 0.00 0.16 0.00 78 1012.9
20260901072513 70 265 1.0 4.0 0.00 0.16 0.00 78 1013.0
20260901072013 70 253 0.0 4.0 0.00 0.16 0.00 78 1013.0
20260901071513 70 0 0.0 0.0 0.00 0.16 0.00 78 1013.0
20260901071013 70 167 0.0 0.0 0.00 0.16 0.00 78 1013.1
20260901070512 70 167 0.0 5.0 0.00 0.16 0.00 78 1013.2
20260901070013 70 0 0.0 0.0 0.00 0.16 0.00 78 1013.2
20260901065533 70 0 0.0 0.0 0.00 0.16 0.00 78 1013.3
20260901065013 70 0 0.0 0.0 0.00 0.16 0.00 78 1013.4
20260901064513 70 0 0.0 0.0 0.00 0.17 0.00 78 1013.4
20260901064013 70 0 0.0 0.0 0.00 0.17 0.00 78 1013.4
20260901063513 71 0 0.0 0.0 0.00 0.17 0.00 78 1013.4
20260901063013 71 0 0.0 0.0 0.00 0.17 0.00 78 1013.4
20260901062534 71 0 0.0 0.0 0.00 0.18 0.00 78 1013.4
20260901062013 71 0 0.0 0.0 0.00 0.25 0.00 78 1013.5
20260901061513 71 0 0.0 0.0 0.00 0.28 0.00 78 1013.7
20260901061012 71 0 0.0 0.0 0.00 0.28 0.00 78 1013.8
20260901060513 71 167 0.0 0.0 0.00 0.28 0.00 78 1013.8
20260901060013 71 167 0.0 4.0 0.00 0.28 0.00 78 1013.9
20260901055513 71 167 0.0 4.0 0.00 0.28 0.00 78 1014.0
20260901055034 71 168 0.0 0.0 0.00 0.28 0.00 78 1013.9
20260901054533 71 168 0.0 1.0 0.00 0.28 0.00 78 1014.1
20260901054013 71 168 0.0 3.0 0.00 0.28 0.00 78 1014.1
20260901053533 71 168 0.0 3.0 0.00 0.28 0.00 78 1014.2
20260901053012 71 167 0.0 0.0 0.00 0.28 0.00 78 1014.1
20260901052512 71 168 0.0 1.0 0.00 0.28 0.00 78 1014.2
20260901052012 71 167 0.0 3.0 0.00 0.28 0.00 78 1014.2
20260901051513 71 168 1.0 4.0 0.00 0.28 0.00 78 1014.2
20260901051012 71 168 1.0 5.0 0.00 0.28 0.00 78 1014.2
20260901050512 71 0 0.0 0.0 0.00 0.28 0.00 78 1014.1
20260901050013 71 0 0.0 0.0 0.00 0.28 0.00 78 1014.2
20260901045512 71 0 0.0 0.0 0.00 0.28 0.00 78 1014.3
20260901045012 71 0 0.0 0.0 0.00 0.28 0.00 78 1014.2
20260901044513 71 0 0.0 0.0 0.00 0.28 0.00 78 1014.2